N1OTX Weather Reports


Display with metric or nautical units.
time (UTC)temp
F
wind
direction
speed
MPH
gust
MPH
rain 1hr
in
rain 24hr
in
rain mn
in
humidity
%
barometer
mb
20260903160042 69 223 0.0 1.0 0.00 0.31 0.31 93 1013.1
20260903155542 68 223 0.0 1.0 0.00 0.31 0.31 94 1013.1
20260903155041 68 111 1.0 2.0 0.00 0.31 0.31 94 1013.2
20260903154521 68 87 1.0 2.0 0.00 0.31 0.31 94 1013.3
20260903154021 68 131 0.0 1.0 0.00 0.31 0.31 95 1013.5
20260903153541 67 131 0.0 1.0 0.00 0.31 0.31 95 1013.6
20260903153020 67 131 0.0 1.0 0.00 0.31 0.31 95 1013.6
20260903152520 67 131 0.0 1.0 0.00 0.31 0.31 96 1013.6
20260903152020 67 0.0 0.0 0.00 0.31 0.31 97 1013.8
20260903151520 67 0.0 0.0 0.00 0.31 0.31 97 1013.6
20260903151020 67 0.0 1.0 0.00 0.31 0.31 97 1013.7
20260903150600 67 131 0.0 1.0 0.00 0.31 0.31 98 1013.7
20260903150040 66 154 0.0 2.0 0.00 0.31 0.31 97 1013.8
20260903145521 66 160 0.0 1.0 0.00 0.31 0.31 98 1013.8
20260903145021 66 159 0.0 1.0 0.00 0.31 0.31 97 1013.9
20260903144546 66 161 0.0 1.0 0.00 0.31 0.31 97 1013.9
20260903144020 66 161 0.0 1.0 0.00 0.31 0.31 97 1014.0
20260903143520 66 166 0.0 2.0 0.00 0.31 0.31 98 1013.9
20260903143020 66 170 0.0 2.0 0.00 0.31 0.31 98 1013.9
20260903142520 66 172 1.0 3.0 0.00 0.31 0.31 98 1013.9
20260903142019 66 230 1.0 3.0 0.00 0.31 0.31 98 1013.9
20260903141559 66 281 0.0 2.0 0.00 0.31 0.31 99 1014.0
20260903141046 65 226 0.0 2.0 0.00 0.31 0.31 99 1014.3
20260903140521 65 209 0.0 2.0 0.00 0.31 0.31 99 1014.3
20260903140020 65 205 0.0 6.0 0.00 0.31 0.31 99 1014.4
20260903135520 65 240 0.0 6.0 0.00 0.31 0.31 99 1014.5
20260903135040 65 280 0.0 2.0 0.00 0.31 0.31 99 1014.4
20260903134522 64 242 0.0 1.0 0.00 0.31 0.31 99 1014.4
20260903134022 64 187 0.0 2.0 0.00 0.31 0.31 99 1014.4
20260903133522 64 187 1.0 3.0 0.00 0.31 0.31 99 1014.4
20260903133021 64 143 1.0 3.0 0.00 0.31 0.31 99 1014.3
20260903132521 64 93 0.0 1.0 0.00 0.31 0.31 99 1014.4
20260903132021 64 88 0.0 2.0 0.00 0.31 0.31 99 1014.4
20260903131520 64 88 0.0 1.0 0.00 0.31 0.31 99 1014.4
20260903131020 64 88 0.0 1.0 0.00 0.31 0.31 99 1014.4
20260903130520 64 88 0.0 1.0 0.00 0.31 0.31 99 1014.3
20260903130021 64 88 0.0 1.0 0.00 0.31 0.31 99 1014.3
20260903125542 64 0.0 0.0 0.00 0.31 0.31 99 1014.5
20260903125021 63 0.0 0.0 0.00 0.31 0.31 99 1014.4
20260903124521 63 0.0 0.0 0.00 0.31 0.31 99 1014.6
20260903124021 63 0.0 0.0 0.00 0.31 0.31 99 1014.6
20260903123521 63 0.0 0.0 0.00 0.31 0.31 99 1014.8
20260903123020 63 0.0 0.0 0.00 0.31 0.31 99 1014.8
20260903122520 63 0.0 0.0 0.00 0.31 0.31 99 1014.9
20260903122020 63 0.0 0.0 0.00 0.31 0.31 99 1014.9
20260903121520 63 0.0 0.0 0.01 0.31 0.31 99 1014.9
20260903121022 63 0.0 0.0 0.01 0.31 0.31 99 1014.9
20260903120521 63 88 0.0 1.0 0.01 0.31 0.31 99 1014.9
20260903120021 63 88 0.0 1.0 0.02 0.31 0.31 99 1015.1
20260903115521 63 87 0.0 1.0 0.02 0.31 0.31 99 1015.2
20260903115041 63 87 0.0 1.0 0.03 0.31 0.31 99 1015.3
20260903114541 63 0.0 0.0 0.03 0.31 0.31 99 1015.3
20260903114020 62 0.0 0.0 0.04 0.31 0.31 99 1015.3
20260903113520 62 0.0 0.0 0.05 0.31 0.31 99 1015.2
20260903113042 62 0.0 0.0 0.05 0.31 0.31 99 1015.4
20260903112541 62 0.0 0.0 0.07 0.31 0.31 99 1015.2
20260903112021 62 0.0 0.0 0.08 0.31 0.31 99 1015.3
20260903111521 62 0.0 0.0 0.09 0.30 0.30 99 1015.4
20260903111021 62 0.0 0.0 0.10 0.30 0.30 99 1015.3
20260903110520 62 0.0 0.0 0.10 0.30 0.30 99 1015.2
20260903110020 62 0.0 0.0 0.10 0.30 0.30 99 1015.2
20260903105522 62 0.0 0.0 0.09 0.29 0.29 99 1015.3
20260903105022 62 0.0 2.0 0.09 0.28 0.28 99 1015.3
20260903104521 62 111 0.0 2.0 0.09 0.28 0.28 99 1015.5
20260903104202 62 0.0 0.0 0.09 0.27 0.27 99 1015.3
20260903103521 62 0.0 0.0 0.08 0.26 0.26 99 1015.0
20260903103021 62 0.0 0.0 0.07 0.26 0.26 99 1015.0
20260903102520 62 0.0 0.0 0.05 0.24 0.24 99 1014.9
20260903102040 62 0.0 0.0 0.04 0.23 0.23 99 1014.9
20260903101520 62 0.0 0.0 0.02 0.21 0.21 99 1015.0
20260903101022 62 0.0 0.0 0.02 0.21 0.21 99 1014.9
20260903100522 62 0.0 0.0 0.02 0.20 0.20 99 1014.9
20260903100041 62 127 0.0 1.0 0.01 0.20 0.20 99 1015.0
20260903095521 62 0.0 0.0 0.01 0.20 0.20 99 1015.0
20260903095021 62 0.0 0.0 0.00 0.19 0.19 98 1015.1
20260903094521 62 0.0 0.0 0.00 0.19 0.19 98 1015.2
20260903094021 62 0.0 1.0 0.00 0.19 0.19 98 1015.2
20260903093521 62 127 0.0 1.0 0.04 0.19 0.19 98 1015.2
20260903093022 62 127 0.0 2.0 0.05 0.19 0.19 98 1015.0
20260903092522 62 127 1.0 2.0 0.09 0.19 0.19 98 1015.3
20260903092042 62 0.0 0.0 0.10 0.19 0.19 97 1015.4
20260903091521 62 0.0 1.0 0.15 0.19 0.19 97 1015.5
20260903091021 62 127 0.0 1.0 0.19 0.19 0.19 97 1015.4
20260903090521 62 128 0.0 2.0 0.19 0.19 0.19 96 1015.5
20260903090021 62 128 1.0 4.0 0.19 0.19 0.19 96 1015.4
20260903085520 62 117 1.0 4.0 0.19 0.19 0.19 96 1015.4
20260903085020 62 155 1.0 3.0 0.19 0.19 0.19 95 1015.6
20260903084540 62 0.0 0.0 0.19 0.19 0.19 95 1015.7
20260903084019 62 0.0 0.0 0.18 0.18 0.18 94 1015.6
20260903083519 63 174 0.0 1.0 0.15 0.15 0.15 92 1015.8
20260903083021 63 0.0 2.0 0.13 0.13 0.13 91 1015.8
20260903082521 64 150 1.0 6.0 0.10 0.10 0.10 89 1015.8
20260903082041 64 132 1.0 6.0 0.09 0.09 0.09 85 1015.9
20260903081520 65 140 2.0 4.0 0.04 0.04 0.04 82 1015.9
20260903081020 65 132 3.0 8.0 0.00 0.00 0.00 80 1015.8
20260903080522 65 142 1.0 6.0 0.00 0.00 0.00 80 1015.9
20260903080022 65 182 2.0 7.0 0.00 0.00 0.00 79 1015.8
20260903075522 65 128 3.0 7.0 0.00 0.00 0.00 79 1015.8
20260903075021 65 123 2.0 6.0 0.00 0.00 0.00 79 1016.0
20260903074521 65 130 2.0 6.0 0.00 0.00 0.00 79 1016.0
20260903074021 65 129 3.0 6.0 0.00 0.00 0.00 79 1016.0
20260903073541 65 139 1.0 6.0 0.00 0.00 0.00 79 1016.0
20260903073021 65 136 2.0 6.0 0.00 0.00 0.00 79 1016.0
20260903072520 65 135 3.0 7.0 0.00 0.00 0.00 78 1016.0
20260903072022 65 133 3.0 9.0 0.00 0.00 0.00 78 1016.2
20260903071520 65 142 2.0 6.0 0.00 0.00 0.00 79 1016.3
20260903071021 65 129 2.0 6.0 0.00 0.00 0.00 79 1016.5
20260903070521 65 142 2.0 4.0 0.00 0.00 0.00 79 1016.5
20260903070021 65 135 1.0 3.0 0.00 0.00 0.00 79 1016.6
20260903065521 65 126 2.0 3.0 0.00 0.00 0.00 79 1016.7
20260903065020 65 151 1.0 3.0 0.00 0.00 0.00 79 1016.9
20260903064520 65 170 0.0 2.0 0.00 0.00 0.00 79 1017.0
20260903064020 65 169 0.0 2.0 0.00 0.00 0.00 79 1017.2
20260903063520 65 204 1.0 2.0 0.00 0.00 0.00 78 1017.3
20260903063044 65 209 1.0 2.0 0.00 0.00 0.00 78 1017.4
20260903062521 65 197 1.0 3.0 0.00 0.00 0.00 78 1017.4
20260903062021 65 133 1.0 3.0 0.00 0.00 0.00 78 1017.4
20260903061521 65 134 1.0 7.0 0.00 0.00 0.00 78 1017.4
20260903061020 65 155 2.0 7.0 0.00 0.00 0.00 78 1017.7
20260903060520 65 146 2.0 7.0 0.00 0.00 0.00 78 1017.7
20260903060022 65 148 2.0 7.0 0.00 0.00 0.00 78 1017.8
20260903055522 65 127 2.0 6.0 0.00 0.00 0.00 78 1018.0
20260903055021 65 147 2.0 6.0 0.00 0.00 0.00 78 1018.2
20260903054521 65 142 2.0 6.0 0.00 0.00 0.00 78 1018.3
20260903054021 65 167 1.0 7.0 0.00 0.00 0.00 78 1018.4
20260903053521 65 130 2.0 4.0 0.00 0.00 0.00 78 1018.3
20260903053021 65 151 2.0 6.0 0.00 0.00 0.00 79 1018.2
20260903052520 65 128 1.0 6.0 0.00 0.00 0.00 79 1018.2
20260903052020 65 152 2.0 7.0 0.00 0.00 0.00 79 1018.2
20260903051522 65 161 3.0 7.0 0.00 0.00 0.00 79 1018.2
20260903051042 65 132 2.0 9.0 0.00 0.00 0.00 80 1018.2
20260903050541 65 134 3.0 7.0 0.00 0.00 0.00 81 1018.4
20260903045521 65 176 1.0 4.0 0.00 0.00 0.00 81 1018.8
20260903045021 65 219 1.0 4.0 0.00 0.00 0.00 82 1018.7
20260903044601 65 211 1.0 3.0 0.00 0.00 0.00 81 1018.5
20260903044020 65 163 1.0 4.0 0.00 0.00 0.00 81 1018.5
20260903043540 65 175 1.0 4.0 0.00 0.00 0.00 81 1018.5
20260903043020 65 124 1.0 6.0 0.00 0.00 0.00 81 1018.5
20260903042521 65 132 3.0 7.0 0.00 0.00 0.00 81 1018.6
20260903042041 65 129 1.0 3.0 0.00 0.00 0.00 81 1018.5
20260903041521 65 142 1.0 2.0 0.00 0.00 0.00 81 1018.7
20260903041021 65 143 2.0 7.0 0.00 0.00 0.00 81 1018.7
20260903040521 65 159 1.0 4.0 0.00 0.00 0.00 81 1018.7
20260903040020 65 154 1.0 3.0 0.00 0.00 0.00 82 1018.6
20260903035520 66 144 1.0 3.0 0.00 0.00 0.00 81 1018.4
20260903035040 66 125 1.0 4.0 0.00 0.00 0.00 81 1018.6
20260903034519 66 119 0.0 2.0 0.00 0.00 0.00 81 1018.6
20260903034019 66 128 1.0 4.0 0.00 0.00 0.00 81 1018.7
20260903033521 66 146 2.0 7.0 0.00 0.00 0.00 81 1018.7
20260903033021 66 141 2.0 7.0 0.00 0.00 0.00 81 1018.9
20260903032521 66 181 2.0 4.0 0.00 0.00 0.00 81 1019.1
20260903032040 66 121 1.0 3.0 0.00 0.00 0.00 82 1019.0
20260903031520 66 177 1.0 4.0 0.00 0.00 0.00 82 1019.1
20260903031020 66 115 1.0 4.0 0.00 0.00 0.00 82 1019.2
20260903030520 66 186 1.0 3.0 0.00 0.00 0.00 82 1019.2
20260903030020 66 147 1.0 3.0 0.00 0.00 0.00 82 1019.2
20260903025521 66 189 0.0 2.0 0.00 0.00 0.00 82 1019.4
20260903025041 66 178 1.0 3.0 0.00 0.00 0.00 82 1019.5
20260903024521 66 161 2.0 4.0 0.00 0.00 0.00 82 1019.5
20260903024021 66 172 1.0 3.0 0.00 0.00 0.00 82 1019.4
20260903023520 66 135 0.0 1.0 0.00 0.00 0.00 82 1019.4
20260903023020 66 0.0 1.0 0.00 0.00 0.00 81 1019.4
20260903022520 66 136 0.0 1.0 0.00 0.00 0.00 81 1019.4
20260903022020 66 141 1.0 3.0 0.00 0.00 0.00 81 1019.5
20260903021521 66 135 1.0 3.0 0.00 0.00 0.00 81 1019.3
20260903021046 66 134 3.0 7.0 0.00 0.00 0.00 81 1019.5
20260903020521 66 125 2.0 7.0 0.00 0.00 0.00 81 1019.5
20260903020101 66 129 1.0 6.0 0.00 0.00 0.00 81 1019.7
20260903015521 66 176 1.0 6.0 0.00 0.00 0.00 82 1019.6
20260903015040 66 166 1.0 6.0 0.00 0.00 0.00 82 1019.4
20260903014602 66 143 2.0 3.0 0.00 0.00 0.00 82 1019.5
20260903014022 66 129 1.0 3.0 0.00 0.00 0.00 82 1019.5
20260903013521 66 132 1.0 3.0 0.00 0.00 0.00 83 1019.3
20260903013041 66 127 2.0 6.0 0.00 0.00 0.00 82 1019.2
20260903012521 66 137 2.0 6.0 0.00 0.00 0.00 82 1019.4
20260903012041 66 138 1.0 3.0 0.00 0.00 0.00 83 1019.4
20260903011521 66 151 1.0 6.0 0.00 0.00 0.00 82 1019.5
20260903011020 66 134 2.0 6.0 0.00 0.00 0.00 82 1019.6
20260903010520 66 123 3.0 6.0 0.00 0.00 0.00 82 1019.4
20260903010022 66 131 3.0 7.0 0.00 0.00 0.00 82 1019.6
20260903005521 66 130 2.0 8.0 0.00 0.00 0.00 82 1019.6
20260903005021 66 125 2.0 10.0 0.00 0.00 0.00 82 1019.8
20260903004521 66 125 3.0 10.0 0.00 0.00 0.00 82 1019.5
20260903004041 66 138 5.0 9.0 0.00 0.00 0.00 82 1019.5
20260903003525 66 127 2.0 6.0 0.00 0.00 0.00 82 1019.6
20260903003024 66 137 3.0 7.0 0.00 0.00 0.00 81 1019.5
20260903002522 66 129 2.0 8.0 0.00 0.00 0.00 81 1019.6
20260903002021 66 124 3.0 8.0 0.00 0.00 0.00 80 1019.7
20260903001521 66 133 3.0 7.0 0.00 0.00 0.00 80 1019.8
20260903001021 66 119 3.0 9.0 0.00 0.00 0.00 79 1020.0
20260903000520 66 136 2.0 6.0 0.00 0.00 0.00 79 1020.0
20260903000021 66 125 2.0 4.0 0.00 0.00 0.00 79 1020.1
20260902235520 66 137 2.0 4.0 0.00 0.00 0.00 79 1020.2
20260902235042 66 131 1.0 3.0 0.00 0.00 0.00 79 1020.3
20260902234523 66 112 2.0 6.0 0.00 0.00 0.00 80 1020.2
20260902234022 66 144 1.0 6.0 0.00 0.00 0.00 80 1020.2
20260902233521 66 127 1.0 3.0 0.00 0.00 0.00 79 1020.3
20260902233021 66 140 2.0 6.0 0.00 0.00 0.00 79 1020.3
20260902232521 66 136 3.0 7.0 0.00 0.00 0.00 79 1020.4
20260902232021 66 119 3.0 7.0 0.00 0.00 0.00 79 1020.4
20260902231520 67 110 1.0 3.0 0.00 0.00 0.00 78 1020.3
20260902231020 67 115 3.0 7.0 0.00 0.00 0.00 78 1020.3
20260902230525 67 106 3.0 6.0 0.00 0.00 0.00 77 1020.5
20260902230022 67 102 3.0 7.0 0.00 0.00 0.00 76 1020.4
20260902225522 67 97 3.0 7.0 0.00 0.00 0.00 75 1020.4
20260902225021 67 92 3.0 10.0 0.00 0.00 0.00 74 1020.5
20260902224521 68 111 4.0 10.0 0.00 0.00 0.00 73 1020.4
20260902224020 68 124 4.0 10.0 0.00 0.00 0.00 72 1020.6
20260902223521 68 136 3.0 8.0 0.00 0.00 0.00 72 1020.8
20260902223024 68 113 4.0 9.0 0.00 0.00 0.00 72 1020.8
20260902222523 68 132 4.0 9.0 0.00 0.00 0.00 72 1020.8
20260902222042 68 133 3.0 9.0 0.00 0.00 0.00 72 1020.8
20260902221521 68 110 4.0 8.0 0.00 0.00 0.00 72 1020.6
20260902221021 68 114 3.0 11.0 0.00 0.00 0.00 72 1020.6
20260902220521 68 105 4.0 11.0 0.00 0.00 0.00 71 1020.6
20260902220020 69 112 3.0 9.0 0.00 0.00 0.00 71 1020.6
20260902215520 69 119 6.0 11.0 0.00 0.00 0.00 70 1020.5
20260902215040 69 110 4.0 10.0 0.00 0.00 0.00 71 1020.5
20260902214522 69 96 4.0 9.0 0.00 0.00 0.00 72 1020.5
20260902214022 69 102 4.0 10.0 0.00 0.00 0.00 71 1020.3
20260902213602 69 108 4.0 11.0 0.00 0.00 0.00 70 1020.3
20260902213021 69 109 5.0 11.0 0.00 0.00 0.00 70 1020.1
20260902212521 70 121 6.0 21.0 0.00 0.00 0.00 69 1020.1
20260902212021 70 110 6.0 21.0 0.00 0.00 0.00 70 1020.0
20260902211520 70 126 5.0 15.0 0.00 0.00 0.00 69 1020.1
20260902211020 70 106 4.0 10.0 0.00 0.00 0.00 70 1020.1
20260902210522 70 109 3.0 10.0 0.00 0.00 0.00 70 1020.3
20260902210021 70 83 6.0 11.0 0.00 0.00 0.00 69 1020.3
20260902205522 70 92 6.0 13.0 0.00 0.00 0.00 69 1020.4
20260902205021 70 113 6.0 15.0 0.00 0.00 0.00 70 1020.5
20260902204602 70 114 5.0 15.0 0.00 0.01 0.00 71 1020.7
20260902204021 70 104 5.0 10.0 0.00 0.01 0.00 71 1020.7
20260902203520 70 132 5.0 11.0 0.00 0.01 0.00 70 1020.8
20260902203040 70 108 4.0 11.0 0.00 0.01 0.00 70 1020.9
20260902202520 70 92 5.0 11.0 0.00 0.01 0.00 70 1020.9
20260902202022 70 85 5.0 14.0 0.00 0.02 0.00 68 1021.0
20260902201540 70 106 5.0 13.0 0.00 0.02 0.00 69 1021.1
20260902201021 70 97 6.0 11.0 0.00 0.02 0.00 69 1021.0
20260902200521 70 104 5.0 10.0 0.00 0.02 0.00 70 1021.1
20260902200020 71 97 3.0 9.0 0.00 0.02 0.00 69 1021.0
20260902195521 71 95 4.0 9.0 0.00 0.02 0.00 68 1020.9
20260902195020 71 96 5.0 11.0 0.00 0.02 0.00 66 1021.0
20260902194520 71 88 4.0 11.0 0.00 0.02 0.00 66 1021.0
20260902194020 71 120 4.0 11.0 0.00 0.02 0.00 65 1021.0
20260902193541 71 106 4.0 11.0 0.00 0.03 0.00 63 1021.1
20260902193026 71 111 4.0 11.0 0.00 0.04 0.00 63 1021.0
20260902192521 71 104 5.0 11.0 0.00 0.04 0.00 62 1021.0
20260902192021 72 100 5.0 11.0 0.00 0.05 0.00 62 1021.0
20260902191545 72 86 5.0 13.0 0.00 0.05 0.00 59 1021.2
20260902191020 72 110 4.0 11.0 0.00 0.06 0.00 60 1021.3
20260902190522 72 135 4.0 10.0 0.00 0.07 0.00 59 1021.3
20260902190021 72 100 4.0 9.0 0.00 0.08 0.00 59 1021.3
20260902185521 72 101 4.0 13.0 0.00 0.11 0.00 58 1021.3
20260902185021 72 87 5.0 10.0 0.00 0.14 0.00 57 1021.2
20260902184521 73 85 4.0 9.0 0.00 0.16 0.00 58 1021.1
20260902184021 73 84 4.0 13.0 0.00 0.18 0.00 60 1021.2
20260902183520 73 92 4.0 13.0 0.00 0.19 0.00 59 1021.1
20260902183044 73 131 6.0 11.0 0.00 0.20 0.00 56 1021.0
20260902182520 72 134 4.0 11.0 0.00 0.21 0.00 58 1021.1
20260902182020 72 91 4.0 11.0 0.00 0.22 0.00 59 1021.1
20260902181520 72 113 5.0 11.0 0.00 0.23 0.00 58 1021.2
20260902181022 72 88 6.0 14.0 0.00 0.25 0.00 58 1021.1
20260902180522 72 92 5.0 14.0 0.00 0.28 0.00 56 1021.1
20260902180021 72 104 7.0 15.0 0.00 0.29 0.00 57 1021.2
20260902175521 72 120 4.0 11.0 0.00 0.31 0.00 58 1021.2
20260902175021 72 91 4.0 9.0 0.00 0.34 0.00 59 1021.2
20260902174521 72 104 5.0 13.0 0.00 0.37 0.00 59 1021.3
20260902174021 73 102 6.0 14.0 0.00 0.39 0.00 57 1021.3
20260902173520 73 89 6.0 13.0 0.00 0.41 0.00 59 1021.2
20260902173022 74 117 4.0 8.0 0.00 0.42 0.00 57 1021.2
20260902172522 74 127 3.0 7.0 0.00 0.43 0.00 60 1021.2
20260902172021 74 114 3.0 8.0 0.00 0.43 0.00 60 1021.3
20260902171519 74 119 5.0 11.0 0.00 0.44 0.00 59 1021.4
20260902171021 74 161 4.0 9.0 0.00 0.45 0.00 58 1021.4
20260902170521 74 126 5.0 13.0 0.00 0.47 0.00 59 1021.4
20260902170040 74 137 4.0 10.0 0.00 0.48 0.00 63 1021.5
20260902165520 73 140 4.0 11.0 0.00 0.48 0.00 63 1021.6
20260902165020 73 102 5.0 11.0 0.00 0.48 0.00 63 1021.6
20260902164522 73 93 2.0 11.0 0.00 0.48 0.00 64 1021.6
20260902164042 73 81 4.0 10.0 0.00 0.48 0.00 68 1021.6
20260902163541 73 102 4.0 10.0 0.00 0.48 0.00 65 1021.8
20260902163021 72 103 3.0 9.0 0.00 0.48 0.00 67 1021.7
20260902162521 72 95 3.0 8.0 0.00 0.48 0.00 67 1021.7
20260902162021 72 101 4.0 10.0 0.00 0.48 0.00 68 1021.8
20260902161520 72 136 3.0 7.0 0.00 0.48 0.00 69 1021.7
20260902161040 72 150 4.0 9.0 0.00 0.48 0.00 68 1021.8
20260902160605 72 143 5.0 9.0 0.00 0.48 0.00 68 1021.8